Weather History for Windom, MN

Change the Weather History Date:

Sunday, December 1, 2013

  Actual Average Record
Temperature  
Mean Temperature 26 °F -  
Max Temperature 35 °F 31 °F 64 °F (1998)
Min Temperature 17 °F 15 °F -5 °F (2005)
Degree Days  
Heating Degree Days 39    
Moisture  
Dew Point 22 °F    
Average Humidity 80    
Maximum Humidity 93    
Minimum Humidity 65    
Precipitation  
Precipitation 0.00 in - - ()
Sea Level Pressure  
Sea Level Pressure 30.05 in    
Wind  
Wind Speed 5 mph (ESE)    
Max Wind Speed 10 mph    
Max Gust Speed -    
Visibility 9 miles    
Events      
Averages and records for this station are not official NWS values.
T = Trace of Precipitation, MM = Missing Value Source: NWS Daily Summary

Daily Weather History Graph

Daily Weather History Graph

Search for Another Location

Airport:

Trip Planner

Search our weather history database for the weather conditions in past years. The results will help you decide how hot, cold, wet, or windy it might be!

Date:

Astronomy

Dec. 01, 2013 Rise Set
Actual Time 7:35 AM CST 4:43 PM CST
Civil Twilight 7:02 AM CST 5:16 PM CST
Nautical Twilight 6:26 AM CST 5:52 PM CST
Astronomical Twilight 5:52 AM CST 6:26 PM CST
Moon 5:51 AM CST (12/1) 3:56 PM CST (12/1)
Length of Visible Light 10h 13m
Length of Day
9h 08m
Waning Crescent, 2% of the Moon is Illuminated
Dec 1
Waning Crescent
Dec 2
New
Dec 9
First Quarter
Dec 17
Full
Dec 25
Last Quarter

Hourly Weather History & Observations

Time (CST) Temp. Windchill Dew Point Humidity Pressure Visibility Wind Dir Wind Speed Gust Speed Precip Events Conditions
12:12 AM 26.6 °F 16.8 °F 21.2 °F 80% 30.16 in 10.0 mi NNW 10.4 mph - N/A   Clear
12:32 AM 26.6 °F 18.2 °F 21.2 °F 80% 30.15 in 10.0 mi North 8.1 mph - N/A   Clear
12:52 AM 26.6 °F 19.1 °F 21.2 °F 80% 30.15 in 10.0 mi NNW 6.9 mph - N/A   Clear
1:13 AM 24.8 °F 17.9 °F 21.2 °F 86% 30.15 in 10.0 mi NNW 5.8 mph - N/A   Mostly Cloudy
1:32 AM 24.8 °F 16.9 °F 21.2 °F 86% 30.15 in 10.0 mi NNW 6.9 mph - N/A   Mostly Cloudy
1:52 AM 23.0 °F 17.0 °F 19.4 °F 86% 30.14 in 10.0 mi NNW 4.6 mph - N/A   Mostly Cloudy
2:13 AM 24.8 °F 19.1 °F 21.2 °F 86% 30.15 in 10.0 mi North 4.6 mph - N/A   Overcast
2:32 AM 24.8 °F 19.1 °F 21.2 °F 86% 30.15 in 10.0 mi NNW 4.6 mph - N/A   Overcast
2:52 AM 24.8 °F 19.1 °F 19.4 °F 80% 30.16 in 10.0 mi NW 4.6 mph - N/A   Mostly Cloudy
3:13 AM 24.8 °F 19.1 °F 21.2 °F 86% 30.15 in 10.0 mi North 4.6 mph - N/A   Mostly Cloudy
3:32 AM 23.0 °F 15.8 °F 19.4 °F 86% 30.16 in 10.0 mi NW 5.8 mph - N/A   Mostly Cloudy
3:52 AM 23.0 °F 17.0 °F 19.4 °F 86% 30.16 in 10.0 mi NW 4.6 mph - N/A   Mostly Cloudy
4:13 AM 21.2 °F - 19.4 °F 93% 30.14 in 7.0 mi Calm Calm - N/A   Scattered Clouds
4:32 AM 21.2 °F 13.6 °F 17.6 °F 86% 30.15 in 7.0 mi NNW 5.8 mph - N/A   Unknown
4:52 AM 17.6 °F 9.3 °F 15.8 °F 93% 30.15 in 7.0 mi NNW 5.8 mph - N/A   Unknown
5:13 AM 19.4 °F 12.8 °F 17.6 °F 93% 30.15 in 7.0 mi NNW 4.6 mph - N/A   Unknown
5:32 AM 21.2 °F 11.7 °F 19.4 °F 93% 30.16 in 7.0 mi NW 8.1 mph - N/A   Unknown
5:52 AM 21.2 °F 13.6 °F 19.4 °F 93% 30.16 in 7.0 mi NNW 5.8 mph - N/A   Mostly Cloudy
6:13 AM 23.0 °F 15.8 °F 19.4 °F 86% 30.16 in 7.0 mi NW 5.8 mph - N/A   Mostly Cloudy
6:32 AM 21.2 °F 13.6 °F 19.4 °F 93% 30.15 in 7.0 mi NNW 5.8 mph - N/A   Overcast
6:52 AM 23.0 °F - 19.4 °F 86% 30.14 in 7.0 mi Calm Calm - N/A   Overcast
7:13 AM 23.0 °F 17.0 °F 19.4 °F 86% 30.15 in 7.0 mi North 4.6 mph - N/A   Overcast
7:32 AM 21.2 °F 14.9 °F 19.4 °F 93% 30.14 in 7.0 mi North 4.6 mph - N/A   Overcast
7:52 AM 21.2 °F - 19.4 °F 93% 30.15 in 7.0 mi Calm Calm - N/A   Scattered Clouds
8:13 AM 21.2 °F - 17.6 °F 86% 30.15 in 7.0 mi Calm Calm - N/A   Unknown
8:32 AM 23.0 °F 17.0 °F 21.2 °F 93% 30.16 in 7.0 mi NNW 4.6 mph - N/A   Unknown
8:52 AM 24.8 °F - 21.2 °F 86% 30.15 in 10.0 mi Calm Calm - N/A   Overcast
9:13 AM 24.8 °F 20.5 °F 21.2 °F 86% 30.14 in 10.0 mi NNE 3.5 mph - N/A   Overcast
9:32 AM 26.6 °F - 21.2 °F 80% 30.14 in 10.0 mi Calm Calm - N/A   Overcast
9:52 AM 26.6 °F - 21.2 °F 80% 30.14 in 10.0 mi Calm Calm - N/A   Unknown
10:13 AM 28.4 °F - 21.2 °F 74% 30.15 in 10.0 mi Calm Calm - N/A   Unknown
10:32 AM 28.4 °F - 23.0 °F 80% 30.15 in 10.0 mi Calm Calm - N/A   Mostly Cloudy
10:53 AM 30.2 °F - 23.0 °F 75% 30.14 in 10.0 mi Calm Calm - N/A   Overcast
11:13 AM 30.2 °F - 23.0 °F 75% 30.13 in 10.0 mi Calm Calm - N/A   Unknown
11:32 AM 30.2 °F - 23.0 °F 75% 30.12 in 10.0 mi Calm Calm - N/A   Unknown
11:53 AM 33.8 °F 30.8 °F 24.8 °F 70% 30.09 in 10.0 mi ESE 3.5 mph - N/A   Scattered Clouds
12:13 PM 33.8 °F 30.8 °F 24.8 °F 70% 30.08 in 10.0 mi ENE 3.5 mph - N/A   Mostly Cloudy
12:32 PM 35.6 °F 32.8 °F 24.8 °F 65% 30.07 in 10.0 mi SE 3.5 mph - N/A   Mostly Cloudy
12:53 PM 35.6 °F 32.8 °F 24.8 °F 65% 30.05 in 10.0 mi East 3.5 mph - N/A   Unknown
1:12 PM 35.6 °F 31.7 °F 24.8 °F 65% 30.04 in 10.0 mi East 4.6 mph - N/A   Scattered Clouds
1:32 PM 35.6 °F 30.7 °F 24.8 °F 65% 30.04 in 10.0 mi SE 5.8 mph - N/A   Scattered Clouds
1:52 PM 35.6 °F 30.7 °F 24.8 °F 65% 30.03 in 10.0 mi SE 5.8 mph - N/A   Scattered Clouds
2:12 PM 35.6 °F 31.7 °F 24.8 °F 65% 30.02 in 10.0 mi SSE 4.6 mph - N/A   Scattered Clouds
2:32 PM 35.6 °F 29.9 °F 24.8 °F 65% 30.02 in 10.0 mi SSE 6.9 mph - N/A   Mostly Cloudy
2:52 PM 35.6 °F 31.7 °F 24.8 °F 65% 30.01 in 10.0 mi SSE 4.6 mph - N/A   Mostly Cloudy
3:13 PM 35.6 °F 31.7 °F 24.8 °F 65% 30.01 in 10.0 mi SSE 4.6 mph - N/A   Overcast
3:32 PM 35.6 °F 30.7 °F 24.8 °F 65% 30.01 in 10.0 mi SSE 5.8 mph - N/A   Overcast
3:52 PM 35.6 °F 31.7 °F 24.8 °F 65% 30.00 in 10.0 mi SE 4.6 mph - N/A   Overcast
4:13 PM 33.8 °F - 24.8 °F 70% 29.99 in 10.0 mi Calm Calm - N/A   Overcast
4:32 PM 33.8 °F 30.8 °F 24.8 °F 70% 29.99 in 10.0 mi SE 3.5 mph - N/A   Overcast
4:52 PM 33.8 °F 29.6 °F 24.8 °F 70% 29.98 in 10.0 mi ESE 4.6 mph - N/A   Mostly Cloudy
5:13 PM 30.2 °F 24.3 °F 23.0 °F 75% 29.98 in 10.0 mi ESE 5.8 mph - N/A   Mostly Cloudy
5:32 PM 30.2 °F 24.3 °F 24.8 °F 80% 29.98 in 10.0 mi SE 5.8 mph - N/A   Mostly Cloudy
5:52 PM 28.4 °F 22.2 °F 23.0 °F 80% 29.97 in 10.0 mi SE 5.8 mph - N/A   Unknown
6:13 PM 28.4 °F 22.2 °F 23.0 °F 80% 29.97 in 10.0 mi SE 5.8 mph - N/A   Unknown
6:32 PM 28.4 °F 23.3 °F 23.0 °F 80% 29.96 in 10.0 mi SE 4.6 mph - N/A   Unknown
6:52 PM 26.6 °F 20.0 °F 21.2 °F 80% 29.95 in 10.0 mi SE 5.8 mph - N/A   Clear
7:13 PM 26.6 °F 20.0 °F 21.2 °F 80% 29.94 in 10.0 mi ESE 5.8 mph - N/A   Clear
7:32 PM 26.6 °F 20.0 °F 21.2 °F 80% 29.93 in 10.0 mi ESE 5.8 mph - N/A   Clear
7:52 PM 24.8 °F - 21.2 °F 86% 29.93 in 10.0 mi Calm Calm - N/A   Clear
8:12 PM 24.8 °F 20.5 °F 21.2 °F 86% 29.92 in 10.0 mi SSE 3.5 mph - N/A   Clear
8:32 PM 24.8 °F 20.5 °F 21.2 °F 86% 29.91 in 10.0 mi SE 3.5 mph - N/A   Clear
8:53 PM 24.8 °F 19.1 °F 21.2 °F 86% 29.90 in 7.0 mi SSE 4.6 mph - N/A   Scattered Clouds
9:12 PM 26.6 °F 21.2 °F 23.0 °F 86% 29.90 in 10.0 mi SSE 4.6 mph - N/A   Overcast
9:33 PM 28.4 °F 23.3 °F 23.0 °F 80% 29.90 in 10.0 mi South 4.6 mph - N/A   Overcast
9:52 PM 28.4 °F 22.2 °F 24.8 °F 86% 29.90 in 10.0 mi SSE 5.8 mph - N/A   Overcast
10:13 PM 30.2 °F 24.3 °F 24.8 °F 80% 29.88 in 10.0 mi SSE 5.8 mph - N/A   Overcast
10:32 PM 30.2 °F 22.6 °F 24.8 °F 80% 29.87 in 10.0 mi SSE 8.1 mph - N/A   Overcast
10:52 PM 30.2 °F 23.4 °F 24.8 °F 80% 29.86 in 10.0 mi SE 6.9 mph - N/A   Scattered Clouds
11:13 PM 30.2 °F 23.4 °F 24.8 °F 80% 29.85 in 10.0 mi SSE 6.9 mph - N/A   Scattered Clouds
11:32 PM 30.2 °F 21.9 °F 24.8 °F 80% 29.85 in 10.0 mi SSE 9.2 mph - N/A   Scattered Clouds
11:52 PM 30.2 °F 26.7 °F 24.8 °F 80% 29.85 in 10.0 mi South 3.5 mph - N/A   Scattered Clouds